Lexington Weather

Lexington, Massachusetts, USA

29°F
4/1/2020 4:58am 
  • Lexington Conditions: Clear
  • Temperature: 29.3°F / -1.5°CWarmer 0.2°F than last hour.
  • Dew Point: 27.5°FIncreased 0.4°Fsince last hour.
  • Relative Humidity: 93%Increased 1.0% since last hour.
  • Wind: Wind from NNW NNW 1 mph, 10-min avg: Calm, gust: 2 mph
  • Barometer: 29.86 in Steady
  • Visibility: 10 miles
  • Snow Today: 0.0 in
  •   

Regional Weather Roundup
for Boston / Norton, MA

        
000
ASUS41 KBOX 302204
RWRBOX

REGIONAL WEATHER ROUNDUP
NATIONAL WEATHER SERVICE BOSTON/NORTON MA
600 PM EDT MON MAR 30 2020

NOTE:  "FAIR" INDICATES FEW OR NO CLOUDS BELOW 12,000 FEET WITH NO 
SIGNIFICANT WEATHER AND/OR OBSTRUCTIONS TO VISIBILITY.

MAZALL-302300-
EASTERN MASSACHUSETTS
  
CITY           SKY/WX    TMP DP  RH WIND       PRES   REMARKS
BOSTON         DRIZZLE   39  37  92 NE13      29.99R WCI  31          
BEVERLY        LGT RAIN  39  36  89 NE15G23   29.97S FOG     WCI  31  
LAWRENCE       LGT RAIN  38  36  92 NE13      30.00R WCI  30          
BEDFORD        LGT RAIN  40  35  83 NE9       29.98R                  
BLUE HILL        N/A     37  36  96 NE12G21   29.95R WCI  29          
NORWOOD        LGT RAIN  41  37  86 NE9       29.99R                  
MARSHFIELD     CLOUDY    41  39  93 NE12G17   29.97R FOG              
PLYMOUTH       CLOUDY    39  38  96 N16G23      N/A  WCI  30          
TAUNTON        LGT RAIN  40  37  89 N6        29.98R                  
NEW BEDFORD    CLOUDY    40  38  93 N12G17    29.96R                  
$$

MAZALL-302300-
CAPE COD AND THE ISLANDS
  
CITY           SKY/WX    TMP DP  RH WIND       PRES   REMARKS
FALMOUTH       NOT AVBL                                               
HYANNIS        CLOUDY    42  37  82 NE15G25   29.91R                  
CHATHAM        CLOUDY    40  36  86 NE12G23   29.93R                  
PROVINCETOWN   CLOUDY    40  38  93 NE16      29.96R WCI  31          
NANTUCKET      CLOUDY    42  38  85 N22G30    29.90R                  
MARTHAS VNYRD  CLOUDY    42  38  85 N12G23    29.92R                  
$$
 
MAZALL-302300-
CENTRAL AND WESTERN MASSACHUSETTS
  
CITY           SKY/WX    TMP DP  RH WIND       PRES   REMARKS
WORCESTER      MIX PCPN  37  34  89 NE13      29.93S WCI  29          
FITCHBURG      LGT RAIN  39  35  86 E8        29.99R                  
ORANGE         LGT RAIN  41  37  86 N3        29.97R                  
SPRINGFIELD    DRIZZLE   41  38  90 NE6       29.95R                  
WESTFIELD      LGT RAIN  42  38  85 N5        29.95R                  
NORTH ADAMS    LGT RAIN  38  34  85 E12       29.94R WCI  30          
PITTSFIELD     CLOUDY    39  35  86 NE6       29.90R                  
$$
 
RIZALL-302300-
RHODE ISLAND
  
CITY           SKY/WX    TMP DP  RH WIND       PRES   REMARKS
PROVIDENCE     CLOUDY    42  39  89 NE12      29.96R                  
NEWPORT        LGT RAIN  43  36  76 N14       29.94F                  
BLOCK ISLAND   CLOUDY    43  38  82 NE15G22   29.92F                  
SMITHFIELD     LGT RAIN  39  38  96 NE13G18   29.95F WCI  31          
WESTERLY       CLOUDY    47  37  68 NE8       29.93F                  
$$
 
CTZALL-302300-
CONNECTICUT
  
CITY           SKY/WX    TMP DP  RH WIND       PRES   REMARKS
BRADLEY INTL   CLOUDY    43  37  79 N10       29.95R                  
HARTFORD       CLOUDY    46  38  73 N6        29.94R                  
BRIDGEPORT     CLOUDY    46  39  76 CALM      29.93R                  
DANBURY        LGT RAIN  47  40  76 E6        29.91R                  
GROTON         CLOUDY    44  39  82 NE13      29.92R                  
NEW HAVEN      CLOUDY    46  40  79 SW5       29.92R                  
CHESTER          N/A     46  39  76 NE8       29.93R                  
MERIDEN        CLOUDY    45  38  76 VRB7      29.94R                  
WILLIMANTIC    CLOUDY    44  37  76 NE8       29.94R                  
OXFORD         CLOUDY    43  38  82 NE7       29.92R                  
$$

MEZ002-015-021-024-NHZ003-005-008-011-012-014-VTZ005-008-302300-
NORTHERN NEW ENGLAND
  
CITY           SKY/WX    TMP DP  RH WIND       PRES   REMARKS
PORTLAND ME    CLOUDY    38  33  82 NE10G21   30.05R WCI  31          
BANGOR ME      LGT SNOW  33  30  88 NE9       30.09R VSB 1   WCI  25  
CONCORD NH     LGT RAIN  38  34  85 E6        30.00R                  
MANCHESTER NH  LGT RAIN  39  35  86 NE10      29.99R                  
NASHUA NH      LGT RAIN  39  39 100 VRB5      30.00R                  
PORTSMOUTH NH  LGT RAIN  37  35  93 NE10      30.00R FOG     WCI  30  
JAFFREY NH     LGT RAIN  37  36  96 VRB3      29.95R                  
KEENE NH       LGT RAIN  39  36  89 N6        29.98R                  
BURLINGTON VT  LGT RAIN  41  36  82 SE9       29.93R                  
MT. WASHINGTON SNOWSHWR  25  25 100 E15         N/A  VSB 1/8 WCI  12  
$$

NYZ052-076-302300-
EASTERN NEW YORK
  
CITY           SKY/WX    TMP DP  RH WIND       PRES   REMARKS
ALBANY         CLOUDY    46  39  76 SE7       29.92R                  
NEW YORK CITY  CLOUDY    48  40  73 NE9       29.91R                  
$$
 
ANZALL-302300-
MARINE OBSERVATIONS
  
STATION/POSITION TIME  TEMP    WIND        PRES    VSBY  WAVE
                       AIR SEA DIR/SP/G                  HT/PER
                 (UTC) (F)     (DEG/KT/KT) (MB)    (MI)  (FT/S)
BOSTON BUOY      2150   40 43   50/ 19/ 21 1014.0R         9/ 9
BUZZARDS BAY     2100           10/ 19/ 21 1013.8R
NANTUCKET SOUND  2140                        N/A           3/ 4
MASS BAY-STELLWA 2104   39 42   70/ 17/ 19 1012.8R  1 7/8 11/11
ISLE OF SHOALS   2100   38      40/ 22/ 25 1014.8R
S OF BLOCK IS    2130      44                N/A           4/ 8
$$

......................KEY.........................
  SKY/WX - SKY CONDITION/PRESENT WEATHER
  TMP    - TEMPERATURE IN FAHRENHEIT
  DWPT   - DEWPOINT IN FAHRENHEIT
  RH     - RELATIVE HUMIDITY IN PERCENT
  WIND   - DIRECTION AND SPEED IN MPH
  PRES   - MEAN SEA LEVEL PRESSURE IN INCHES OF HG
  WCI    - WIND CHILL INDEX
  VSB    - VISIBILITY IN MILES
  HX     - HEAT INDEX
  TC     - TEMPERATURE IN CELSIUS
  VRB    - VARIABLE WIND DIRECTION
  N/A    - NOT AVAILABLE
  
      

Other recent Regional Weather Roundups

Wed Apr 1, 4:05am

Wed Apr 1, 3:04am

Wed Apr 1, 2:04am

Wed Apr 1, 1:04am

Wed Apr 1, 12:04am

Tue Mar 31, 11:04pm

Tue Mar 31, 10:04pm

Tue Mar 31, 9:04pm

Tue Mar 31, 8:04pm

Tue Mar 31, 7:04pm

Tue Mar 31, 6:04pm

Tue Mar 31, 4:04pm

Tue Mar 31, 3:04pm

Tue Mar 31, 2:04pm

Tue Mar 31, 1:04pm

Tue Mar 31, 12:05pm

Tue Mar 31, 11:04am

Tue Mar 31, 10:05am

Tue Mar 31, 9:04am

Tue Mar 31, 8:04am

Tue Mar 31, 7:05am

Tue Mar 31, 6:04am

Tue Mar 31, 5:04am

Tue Mar 31, 4:04am

Tue Mar 31, 3:04am

Tue Mar 31, 2:04am

Tue Mar 31, 1:04am

Tue Mar 31, 12:04am

Mon Mar 30, 11:04pm

Mon Mar 30, 10:04pm

Mon Mar 30, 9:05pm

Mon Mar 30, 8:04pm

Mon Mar 30, 7:04pm

Mon Mar 30, 5:05pm

Mon Mar 30, 4:04pm

Mon Mar 30, 3:04pm

Mon Mar 30, 2:04pm

Mon Mar 30, 1:04pm

Mon Mar 30, 12:04pm

Mon Mar 30, 11:04am

Mon Mar 30, 10:04am

Mon Mar 30, 9:04am

Mon Mar 30, 8:04am

Mon Mar 30, 7:04am

Mon Mar 30, 6:04am

Mon Mar 30, 5:04am

Mon Mar 30, 4:04am

Mon Mar 30, 3:05am

Mon Mar 30, 2:04am

Mon Mar 30, 1:04am

Mon Mar 30, 12:04am

Sun Mar 29, 11:04pm

Sun Mar 29, 10:05pm

Sun Mar 29, 9:04pm

Sun Mar 29, 8:04pm

Sun Mar 29, 7:04pm

Sun Mar 29, 6:04pm

Sun Mar 29, 5:05pm

Sun Mar 29, 4:04pm

Sun Mar 29, 3:04pm

Sun Mar 29, 2:04pm

Sun Mar 29, 1:05pm

Sun Mar 29, 12:04pm

Sun Mar 29, 11:04am

Sun Mar 29, 10:04am

Sun Mar 29, 9:04am

Sun Mar 29, 8:04am

Sun Mar 29, 7:04am

Sun Mar 29, 6:04am

Sun Mar 29, 5:04am

Meta data:

ID: 0a6410c6-b931-40fc-a5bc-26abfe71065b
Link: https://api.weather.gov/products/0a6410c6-b931-40fc-a5bc-26abfe71065b